• In Czech Republic
  • List of Countries
  • For 7 days
  • Water Temperature
  • Satellite Maps
  • Weather Map
  • Weather Widgets
  • user-avatar
    Login

    Hourly Weather La Rioja

    Today, 20 August, Monday

    Time Temperature Precipitation Wind Pressure Humidity
    00:00 +8°C° 0 mm 2 mps 727 mmHg 34%
    01:00 +7°C° 0 mm 2 mps 727 mmHg 35%
    02:00 +7°C° 0 mm 2 mps 726 mmHg 36%
    03:00 +6°C° 0 mm 2 mps 726 mmHg 38%
    04:00 +6°C° 0 mm 2 mps 726 mmHg 39%
    05:00 +5°C° 0 mm 2 mps 725 mmHg 41%
    06:00 +6°C° 0 mm 2 mps 725 mmHg 41%
    07:00 +6°C° 0 mm 2 mps 725 mmHg 40%
    08:00 +7°C° 0 mm 2 mps 725 mmHg 40%
    09:00 +8°C° 0 mm 2 mps 725 mmHg 36%
    10:00 +10°C° 0 mm 2 mps 725 mmHg 32%
    11:00 +12°C° 0 mm 2 mps 724 mmHg 29%
    12:00 +12°C° 0 mm 3 mps 724 mmHg 27%
    13:00 +13°C° 0 mm 3 mps 723 mmHg 25%
    14:00 +14°C° 0 mm 3 mps 722 mmHg 23%
    15:00 +14°C° 0 mm 3 mps 722 mmHg 23%
    16:00 +14°C° 0 mm 3 mps 721 mmHg 23%
    17:00 +14°C° 0 mm 3 mps 721 mmHg 23%
    18:00 +13°C° 0 mm 3 mps 721 mmHg 25%
    19:00 +12°C° 0 mm 2 mps 722 mmHg 28%
    20:00 +10°C° 0 mm 2 mps 722 mmHg 30%
    21:00 +10°C° 0 mm 1 mps 722 mmHg 32%
    22:00 +10°C° 0 mm 1 mps 722 mmHg 34%
    23:00 +9°C° 0 mm 1 mps 722 mmHg 35%

    Tomorrow, 21 August, Tuesday

    Time Temperature Precipitation Wind Pressure Humidity
    00:00 +9°C° 0 mm 1 mps 722 mmHg 37%
    01:00 +8°C° 0 mm 1 mps 721 mmHg 38%
    02:00 +8°C° 0 mm 1 mps 721 mmHg 40%
    03:00 +7°C° 0 mm 1 mps 721 mmHg 41%
    04:00 +7°C° 0 mm 1 mps 720 mmHg 43%
    05:00 +6°C° 0 mm 1 mps 720 mmHg 44%
    06:00 +7°C° 0 mm 1 mps 720 mmHg 42%
    07:00 +8°C° 0 mm 1 mps 720 mmHg 39%
    08:00 +9°C° 0 mm 1 mps 721 mmHg 36%
    09:00 +10°C° 0 mm 2 mps 721 mmHg 32%
    10:00 +13°C° 0 mm 2 mps 721 mmHg 28%
    11:00 +15°C° 0 mm 2 mps 721 mmHg 23%
    12:00 +17°C° 0 mm 2 mps 720 mmHg 22%
    13:00 +18°C° 0 mm 2 mps 720 mmHg 20%
    14:00 +19°C° 0 mm 3 mps 719 mmHg 18%
    15:00 +19°C° 0 mm 2 mps 719 mmHg 18%
    16:00 +19°C° 0 mm 2 mps 718 mmHg 18%
    17:00 +19°C° 0 mm 2 mps 718 mmHg 19%
    18:00 +17°C° 0 mm 2 mps 718 mmHg 22%
    19:00 +15°C° 0 mm 2 mps 719 mmHg 26%
    20:00 +13°C° 0 mm 1 mps 719 mmHg 30%
    21:00 +13°C° 0 mm 1 mps 719 mmHg 31%
    22:00 +12°C° 0 mm 1 mps 719 mmHg 33%
    23:00 +12°C° 0 mm 1 mps 719 mmHg 34%

    Day after tomorrow, 22 August, Wednesday

    Time Temperature Precipitation Wind Pressure Humidity
    00:00 +11°C° 0 mm 1 mps 719 mmHg 36%
    01:00 +11°C° 0 mm 1 mps 718 mmHg 37%
    02:00 +10°C° 0 mm 1 mps 718 mmHg 39%
    03:00 +10°C° 0 mm 1 mps 718 mmHg 40%
    04:00 +9°C° 0 mm 1 mps 717 mmHg 42%
    05:00 +8°C° 0 mm 2 mps 717 mmHg 43%
    06:00 +9°C° 0 mm 2 mps 717 mmHg 41%
    07:00 +10°C° 0 mm 2 mps 717 mmHg 38%
    08:00 +12°C° 0 mm 2 mps 717 mmHg 35%
    09:00 +14°C° 0 mm 2 mps 717 mmHg 31%
    10:00 +17°C° 0 mm 2 mps 716 mmHg 26%
    11:00 +19°C° 0 mm 3 mps 716 mmHg 22%
    12:00 +20°C° 0 mm 3 mps 715 mmHg 20%
    13:00 +22°C° 0 mm 3 mps 713 mmHg 17%
    14:00 +24°C° 0 mm 3 mps 712 mmHg 15%
    15:00 +24°C° 0 mm 3 mps 711 mmHg 15%
    16:00 +24°C° 0 mm 3 mps 711 mmHg 15%
    17:00 +24°C° 0 mm 2 mps 710 mmHg 14%
    18:00 +23°C° 0 mm 2 mps 710 mmHg 17%
    19:00 +20°C° 0 mm 2 mps 710 mmHg 19%
    20:00 +19°C° 0 mm 1 mps 710 mmHg 21%
    21:00 +18°C° 0 mm 1 mps 709 mmHg 23%
    22:00 +16°C° 0 mm 2 mps 709 mmHg 25%
    23:00 +16°C° 0 mm 2 mps 709 mmHg 27%

    23 August, Thursday

    Time Temperature Precipitation Wind Pressure Humidity
    00:00 +15°C° 0 mm 2 mps 708 mmHg 28%
    01:00 +15°C° 0 mm 2 mps 708 mmHg 29%
    02:00 +15°C° 0 mm 2 mps 707 mmHg 30%
    03:00 +14°C° 0 mm 2 mps 706 mmHg 30%
    04:00 +14°C° 0 mm 2 mps 706 mmHg 31%
    05:00 +14°C° 0 mm 2 mps 705 mmHg 32%
    06:00 +15°C° 0 mm 2 mps 706 mmHg 31%
    07:00 +15°C° 0 mm 2 mps 706 mmHg 30%
    08:00 +16°C° 0 mm 2 mps 707 mmHg 29%
    09:00 +18°C° 0 mm 3 mps 707 mmHg 27%
    10:00 +20°C° 0 mm 3 mps 708 mmHg 25%
    11:00 +22°C° 0 mm 4 mps 708 mmHg 24%
    12:00 +22°C° 0 mm 4 mps 708 mmHg 23%
    13:00 +23°C° 0 mm 4 mps 708 mmHg 23%
    14:00 +23°C° 0 mm 4 mps 708 mmHg 22%
    15:00 +23°C° 0 mm 4 mps 708 mmHg 22%
    16:00 +23°C° 0 mm 4 mps 709 mmHg 22%
    17:00 +23°C° 0 mm 4 mps 709 mmHg 22%
    18:00 +20°C° 0 mm 3 mps 710 mmHg 27%
    19:00 +18°C° 0 mm 2 mps 711 mmHg 32%
    20:00 +16°C° 0 mm 1 mps 712 mmHg 37%
    21:00 +16°C° 0 mm 2 mps 713 mmHg 38%
    22:00 +15°C° 0 mm 2 mps 715 mmHg 39%
    23:00 +15°C° 0 mm 2 mps 716 mmHg 41%

    24 August, Friday

    Time Temperature Precipitation Wind Pressure Humidity
    00:00 +13°C° 0 mm 3 mps 717 mmHg 43%
    01:00 +12°C° 0 mm 3 mps 718 mmHg 46%
    02:00 +12°C° 0 mm 3 mps 719 mmHg 48%
    03:00 +11°C° 0 mm 3 mps 720 mmHg 48%
    04:00 +11°C° 0 mm 3 mps 720 mmHg 47%
    05:00 +10°C° 0 mm 3 mps 721 mmHg 47%
    06:00 +11°C° 0 mm 3 mps 722 mmHg 44%
    07:00 +11°C° 0 mm 3 mps 723 mmHg 41%
    08:00 +12°C° 0 mm 3 mps 724 mmHg 38%
    09:00 +14°C° 0 mm 3 mps 724 mmHg 34%
    10:00 +16°C° 0 mm 3 mps 724 mmHg 30%
    11:00 +18°C° 0 mm 3 mps 725 mmHg 25%
    12:00 +18°C° 0 mm 3 mps 724 mmHg 24%
    13:00 +19°C° 0 mm 3 mps 724 mmHg 22%
    14:00 +20°C° 0 mm 2 mps 723 mmHg 21%
    15:00 +20°C° 0 mm 2 mps 723 mmHg 20%
    16:00 +20°C° 0 mm 2 mps 723 mmHg 20%
    17:00 +20°C° 0 mm 2 mps 722 mmHg 20%
    18:00 +18°C° 0 mm 2 mps 723 mmHg 22%
    19:00 +17°C° 0 mm 2 mps 723 mmHg 24%
    20:00 +15°C° 0 mm 2 mps 723 mmHg 26%
    21:00 +15°C° 0 mm 2 mps 723 mmHg 27%
    22:00 +14°C° 0 mm 2 mps 723 mmHg 28%
    23:00 +14°C° 0 mm 2 mps 723 mmHg 29%

    25 August, Saturday

    Time Temperature Precipitation Wind Pressure Humidity
    00:00 +13°C° 0 mm 2 mps 722 mmHg 30%
    01:00 +12°C° 0 mm 2 mps 722 mmHg 30%
    02:00 +12°C° 0 mm 2 mps 721 mmHg 31%
    03:00 +11°C° 0 mm 1 mps 721 mmHg 33%
    04:00 +11°C° 0 mm 1 mps 721 mmHg 34%
    05:00 +10°C° 0 mm 1 mps 721 mmHg 36%
    06:00 +11°C° 0 mm 1 mps 721 mmHg 33%
    07:00 +13°C° 0 mm 1 mps 722 mmHg 30%
    08:00 +14°C° 0 mm 1 mps 722 mmHg 28%
    09:00 +16°C° 0 mm 1 mps 722 mmHg 24%
    10:00 +18°C° 0 mm 2 mps 722 mmHg 21%
    11:00 +20°C° 0 mm 2 mps 722 mmHg 17%
    12:00 +23°C° 0 mm 2 mps 721 mmHg 16%
    13:00 +24°C° 0 mm 2 mps 720 mmHg 14%
    14:00 +25°C° 0 mm 2 mps 719 mmHg 13%
    15:00 +25°C° 0 mm 2 mps 718 mmHg 13%
    16:00 +25°C° 0 mm 2 mps 718 mmHg 13%
    17:00 +26°C° 0 mm 2 mps 717 mmHg 13%
    18:00 +23°C° 0 mm 2 mps 717 mmHg 16%
    19:00 +20°C° 0 mm 2 mps 717 mmHg 18%
    20:00 +18°C° 0 mm 2 mps 716 mmHg 21%
    21:00 +18°C° 0 mm 2 mps 716 mmHg 22%
    22:00 +17°C° 0 mm 2 mps 716 mmHg 23%
    23:00 +17°C° 0 mm 2 mps 716 mmHg 24%
    Show more